sat.trackr.live / text

‹ back to catalog

HXMT (HUIYAN)

NORAD 42758 · 2017-034A

PAYLOAD ACTIVE UNKNOWN

§ Identity

Operator
Country
PRC
Launch date
2017-06-15
Launch site
JSC
Launch vehicle
Mass (kg)
RCS (m²)

Purposes: science

External: N2YO · Heavens-Above · Gunter

§ Orbital elements

Epoch: 2026-05-25T04:13:24.245184Z

Period
94.85 min
Inclination
43.0146°
Eccentricity
0.0031637
Mean motion
15.18235821 rev/d
Perigee alt
489.4 km
Apogee alt
533.0 km
Semi-major
6,889.3 km
B*
2.1936e-4
RAAN
311.1548°
Arg perigee
356.7517°
Mean anomaly
3.3122°
Rev number
49,416

§ Raw data

HXMT (HUIYAN)1 42758U 17034A   26145.17597506  .00004387  00000+0  21936-3 0  99942 42758  43.0146 311.1548 0031637 356.7517   3.3122 15.18235821494164

JSON: /api/v1/satellites/42758 · /tle

For live sub-satellite position, see the globe view (requires WebGL).

§ Visibility from observer

Set your observer location to see the next 7 days of passes ≥ 10°. The values pass through the URL so the page stays shareable.

No JS? Fill the form by hand. The geolocation button needs JavaScript.

§ Radio — SatNOGS DB

ModeDescriptionDownlinkUplink
FM FM downlink 2.216 GHz

1 transmitter · refreshed weekly from db.satnogs.org